Date String (YYYY-MM-DD hh:mm:ss) UTC,Instrument flags,Ambient pressure (hPa),Sample flow (lpm),Bypass flow (lpm),Sample temperature (°C),Ambient temperature (°C),ASC tube jacket temperature (°C),LED temperature (°C),Box temperature (°C),Sample RH (%),Span deviation,Mass concentration (μg/m³),Mass concentration (μg/m³),Mass concentration (μg/m³)
DateTimeUTC,F1_M11,P_M11,Q1_M11,Q2_M11,T1_M11,T2_M11,T3_M11,T4_M11,T5_M11,U1_M11,ZSPAN_M11,X0_M11,X2_M11,X1_M11
2022-10-15 08:00:00,,0824.9,5.00,0.00,28.9,27.2,00.0,37.8,30.7,07.6,0000.0,0005.34,0003.18,0002.45
2022-10-15 08:01:00,,0824.9,5.00,0.00,28.9,27.3,00.0,37.8,30.7,07.6,0000.0,0005.81,0003.16,0002.45
2022-10-15 08:02:00,,0824.9,4.99,0.00,28.9,27.2,00.0,37.8,30.6,07.6,0000.0,0006.19,0003.16,0002.44
2022-10-15 08:03:00,,0824.9,5.01,0.00,28.9,27.2,00.0,37.8,30.6,07.6,0000.0,0005.94,0003.15,0002.44
2022-10-15 08:04:00,,0824.9,5.01,0.00,28.9,27.2,00.0,37.8,30.6,07.6,0000.0,0007.01,0003.13,0002.42
2022-10-15 08:05:00,,0824.9,4.99,0.00,28.9,27.2,00.0,37.8,30.6,07.6,0000.0,0006.94,0003.10,0002.41
2022-10-15 08:06:00,,0824.9,5.01,0.00,28.9,27.2,00.0,37.8,30.6,07.7,0000.0,0007.30,0003.12,0002.42
2022-10-15 08:07:00,,0824.9,4.98,0.00,28.8,27.2,00.0,37.8,30.6,07.6,0000.0,0007.48,0003.09,0002.42
2022-10-15 08:08:00,,0824.9,5.01,0.00,28.8,27.2,00.0,37.8,30.6,07.6,0000.0,0007.78,0003.12,0002.42
2022-10-15 08:09:00,,0824.9,4.99,0.00,28.8,27.2,00.0,37.8,30.6,07.7,0000.0,0007.77,0003.13,0002.42
2022-10-15 08:10:00,,0825.0,5.02,0.00,28.8,27.2,00.0,37.8,30.6,07.7,0000.0,0007.82,0003.07,0002.41
2022-10-15 08:11:00,,0825.0,5.00,0.00,28.8,27.2,00.0,37.8,30.5,07.7,0000.0,0008.91,0003.06,0002.40
2022-10-15 08:12:00,,0825.1,4.99,0.00,28.8,27.2,00.0,37.8,30.5,07.7,0000.0,0008.72,0003.08,0002.40
2022-10-15 08:13:00,,0825.1,5.00,0.00,28.8,27.2,00.0,37.8,30.5,07.7,0000.0,0008.43,0003.07,0002.41
2022-10-15 08:14:00,,0825.1,4.99,0.00,28.8,27.2,00.0,37.7,30.6,07.7,0000.0,0008.37,0003.09,0002.42
2022-10-15 08:15:00,,0825.1,5.00,0.00,28.8,27.2,00.0,37.7,30.6,07.7,0000.0,0007.85,0003.14,0002.46
2022-10-15 08:16:00,,0825.2,5.00,0.00,28.8,27.2,00.0,37.7,30.6,07.7,0000.0,0007.74,0003.14,0002.49
2022-10-15 08:17:00,,0825.2,4.98,0.00,28.8,27.2,00.0,37.7,30.6,07.7,0000.0,0007.55,0003.12,0002.49
2022-10-15 08:18:00,,0825.2,5.01,0.00,28.8,27.2,00.0,37.7,30.6,07.7,0000.0,0007.55,0003.15,0002.52
2022-10-15 08:19:00,,0825.2,4.99,0.00,28.8,27.2,00.0,37.7,30.6,07.7,0000.0,0007.43,0003.18,0002.54
2022-10-15 08:20:00,,0825.2,5.01,0.00,28.8,27.2,00.0,37.7,30.6,07.7,0000.0,0007.50,0003.20,0002.57
2022-10-15 08:21:00,,0825.2,4.99,0.00,28.8,27.2,00.0,37.7,30.6,07.7,0000.0,0007.42,0003.22,0002.60
2022-10-15 08:22:00,,0825.2,5.01,0.00,28.8,27.2,00.0,37.7,30.6,07.7,0000.0,0006.52,0003.25,0002.62
2022-10-15 08:23:00,,0825.2,5.00,0.00,28.8,27.2,00.0,37.7,30.6,07.7,0000.0,0006.89,0003.29,0002.65
2022-10-15 08:24:00,,0825.2,5.00,0.00,28.8,27.2,00.0,37.7,30.6,07.7,0000.0,0007.34,0003.36,0002.68
2022-10-15 08:25:00,,0825.3,4.99,0.00,28.8,27.3,00.0,37.7,30.6,07.7,0000.0,0007.41,0003.37,0002.68
2022-10-15 08:26:00,,0825.3,5.00,0.00,28.8,27.3,00.0,37.7,30.6,07.7,0000.0,0007.41,0003.34,0002.69
2022-10-15 08:27:00,,0825.3,5.00,0.00,28.8,27.3,00.0,37.7,30.6,07.7,0000.0,0007.44,0003.35,0002.69
2022-10-15 08:28:00,,0825.4,5.01,0.00,28.8,27.2,00.0,37.7,30.6,07.7,0000.0,0007.48,0003.35,0002.69
2022-10-15 08:29:00,,0825.3,5.00,0.00,28.8,27.2,00.0,37.7,30.6,07.7,0000.0,0007.46,0003.36,0002.69
2022-10-15 08:30:00,,0825.3,5.00,0.00,28.8,27.2,00.0,37.7,30.6,07.8,0000.0,0007.43,0003.36,0002.70
2022-10-15 08:31:00,,0825.3,4.99,0.00,28.8,27.2,00.0,37.7,30.6,07.7,0000.0,0008.13,0003.36,0002.70
2022-10-15 08:32:00,,0825.4,5.02,0.00,28.8,27.2,00.0,37.7,30.6,07.7,0000.0,0008.24,0003.35,0002.69
2022-10-15 08:33:00,,0825.3,4.99,0.00,28.8,27.3,00.0,37.7,30.6,07.7,0000.0,0008.25,0003.33,0002.69
2022-10-15 08:34:00,,0825.3,5.01,0.00,28.8,27.3,00.0,37.7,30.6,07.7,0000.0,0007.79,0003.30,0002.68
2022-10-15 08:35:00,,0825.4,4.98,0.00,28.8,27.2,00.0,37.7,30.6,07.7,0000.0,0007.52,0003.23,0002.66
2022-10-15 08:36:00,,0825.4,5.01,0.00,28.8,27.3,00.0,37.7,30.6,07.7,0000.0,0007.54,0003.23,0002.67
2022-10-15 08:37:00,,0825.3,4.99,0.00,28.8,27.3,00.0,37.7,30.6,07.7,0000.0,0007.87,0003.26,0002.68
2022-10-15 08:38:00,,0825.4,5.01,0.00,28.8,27.3,00.0,37.7,30.6,07.7,0000.0,0008.36,0003.28,0002.68
2022-10-15 08:39:00,,0825.3,4.99,0.00,28.8,27.3,00.0,37.7,30.6,07.7,0000.0,0008.56,0003.32,0002.69
2022-10-15 08:40:00,,0825.3,5.01,0.00,28.8,27.3,00.0,37.7,30.6,07.7,0000.0,0008.88,0003.37,0002.71
2022-10-15 08:41:00,,0825.4,4.99,0.00,28.8,27.2,00.0,37.7,30.6,07.8,0000.0,0008.88,0003.37,0002.71
2022-10-15 08:42:00,,0825.3,5.01,0.00,28.8,27.2,00.0,37.7,30.6,07.8,0000.0,0008.35,0003.36,0002.70
2022-10-15 08:43:00,,0825.3,4.99,0.00,28.8,27.2,00.0,37.7,30.6,07.8,0000.0,0008.33,0003.41,0002.69
2022-10-15 08:44:00,,0825.3,5.01,0.00,28.8,27.2,00.0,37.7,30.6,07.8,0000.0,0008.05,0003.45,0002.70
2022-10-15 08:45:00,,0825.3,5.00,0.00,28.8,27.2,00.0,37.7,30.6,07.8,0000.0,0008.08,0003.48,0002.71
2022-10-15 08:46:00,,0825.4,5.00,0.00,28.8,27.2,00.0,37.7,30.6,07.8,0000.0,0008.15,0003.51,0002.72
2022-10-15 08:47:00,,0825.4,5.00,0.00,28.8,27.2,00.0,37.7,30.6,07.8,0000.0,0008.39,0003.52,0002.72
2022-10-15 08:48:00,,0825.4,5.01,0.00,28.8,27.2,00.0,37.7,30.6,07.8,0000.0,0009.04,0003.53,0002.71
2022-10-15 08:49:00,,0825.4,5.00,0.00,28.8,27.3,00.0,37.7,30.7,08.0,0000.0,0009.04,0003.54,0002.72
2022-10-15 08:50:00,,0825.5,4.99,0.00,28.8,27.3,00.0,37.7,30.7,08.3,0000.0,0008.85,0003.51,0002.73
2022-10-15 08:51:00,,0825.4,5.02,0.00,28.8,27.3,00.0,37.7,30.7,08.7,0000.0,0008.74,0003.52,0002.75
2022-10-15 08:52:00,,0825.5,4.98,0.00,28.9,27.3,00.0,37.7,30.7,08.7,0000.0,0008.76,0003.55,0002.81
2022-10-15 08:53:00,,0825.4,5.01,0.00,28.9,27.3,00.0,37.7,30.7,08.8,0000.0,0008.81,0003.59,0002.89
2022-10-15 08:54:00,,0825.5,5.00,0.00,28.9,27.3,00.0,37.7,30.7,09.1,0000.0,0008.73,0003.67,0003.06
2022-10-15 08:55:00,,0825.5,4.99,0.00,28.9,27.3,00.0,37.7,30.7,09.2,0000.0,0008.68,0003.75,0003.21
2022-10-15 08:56:00,,0825.5,5.00,0.00,28.9,27.4,00.0,37.7,30.7,09.3,0000.0,0009.29,0003.86,0003.33
2022-10-15 08:57:00,,0825.4,5.00,0.00,28.9,27.3,00.0,37.7,30.7,09.4,0000.0,0009.97,0003.99,0003.44
2022-10-15 08:58:00,,0825.4,5.01,0.00,28.9,27.4,00.0,37.7,30.7,09.3,0000.0,0009.79,0004.08,0003.54
2022-10-15 08:59:00,,0825.4,5.00,0.00,28.9,27.4,00.0,37.7,30.7,09.2,0000.0,0009.28,0004.17,0003.61
